Stations météo

réclame
Mon MeteoGroup
Florennes, Belgique (6456): Température de l'air & dewpoint: 18.11.2017 15:00:00 - 24.11.2017 15:00:00 (CET)Florennes, Belgique (6456): Vitesse du vent & gusts: 18.11.2017 15:00:00 - 24.11.2017 15:00:00 (CET)Florennes, Belgique (6456): Direction du vent: 18.11.2017 15:00:00 - 24.11.2017 15:00:00 (CET)Florennes, Belgique (6456): reduced air pressure: 18.11.2017 15:00:00 - 24.11.2017 15:00:00 (CET)Florennes, Belgique (6456): visibility: 18.11.2017 15:00:00 - 24.11.2017 15:00:00 (CET)
Date & Time tt [°C] td [°C] ff [km/h] ff [knt] fx [km/h] fx [knt] dd ppp [hPa] vv [km]
24.11.2017 15:00:00 7,9 3,9 7 4 14 8 WSW 1012,2 20
24.11.2017 14:00:00 7,5 3,4 7 4 14 8 W 1012,3 12
24.11.2017 13:00:00 6,6 4,9 7 4 - - W 1012,2 12
24.11.2017 12:00:00 7,0 5,2 7 4 14 8 WSW 1012,2 20
24.11.2017 11:00:00 6,5 4,9 7 4 22 12 W 1011,7 20
24.11.2017 10:00:00 6,3 4,9 13 7 - - NW 1010,7 10
24.11.2017 09:00:00 6,9 6,1 5 3 14 8 WNW 1009,3 3,5
24.11.2017 08:00:00 6,6 5,9 4 2 18 10 - 1008,1 4,0
24.11.2017 07:00:00 7,1 6,2 2 1 - - - 1007,5 4,0
24.11.2017 06:00:00 8,1 7,2 9 5 54 29 NW 1006,8 4,0
24.11.2017 05:00:00 10,5 9,2 28 15 43 23 SSW 1005,7 5
24.11.2017 04:00:00 8,0 7,1 16 9 - - S 1006,6 10
24.11.2017 03:00:00 7,9 7,1 8 4 18 10 S 1007,7 10
24.11.2017 02:00:00 8,1 7,3 8 4 18 10 SSW 1009,1 3,7
24.11.2017 01:00:00 8,1 7,1 11 6 - - S 1009,6 7
24.11.2017 00:00:00 8,1 6,9 11 6 25 14 WSW 1010,5 6
23.11.2017 23:00:00 8,4 7,1 16 9 25 14 WSW 1010,8 4,6
23.11.2017 22:00:00 8,8 7,9 13 7 - - SW 1011,0 2,5
23.11.2017 21:00:00 8,8 7,9 9 5 11 6 SSW 1010,6 10
23.11.2017 20:00:00 8,6 7,9 5 3 18 10 WSW 1010,2 10
23.11.2017 19:00:00 8,5 7,5 9 5 - - SSW 1009,8 10
23.11.2017 18:00:00 9,3 8,1 13 7 22 12 WSW 1009,1 10
23.11.2017 17:00:00 9,6 8,1 13 7 40 21 W 1007,7 10
23.11.2017 16:00:00 13,2 8,2 29 16 - - W 1006,5 4,0
23.11.2017 15:00:00 13,4 8,2 34 18 50 27 SW 1005,2 10
23.11.2017 14:00:00 12,6 8,7 28 15 47 25 SSW 1004,8 8
23.11.2017 13:00:00 12,8 7,8 29 16 - - SSW 1004,7 10
23.11.2017 12:00:00 11,6 7,9 31 17 47 25 SSW 1004,3 10
23.11.2017 11:00:00 11,1 6,6 34 18 54 29 SSW 1003,7 10
23.11.2017 10:00:00 11,5 5,3 35 19 - - SSW 1002,8 10
23.11.2017 09:00:00 10,6 5,4 35 19 61 33 SSW 1002,0 10
23.11.2017 08:00:00 11,3 3,7 34 18 61 33 S 1000,7 10
23.11.2017 07:00:00 11,1 3,3 35 19 - - S 1000,5 10
23.11.2017 06:00:00 10,8 3,2 29 16 58 31 S 1000,7 10
23.11.2017 05:00:00 10,6 2,9 29 16 54 29 S 1001,1 10
23.11.2017 04:00:00 10,3 2,3 26 14 - - S 1001,7 10
23.11.2017 03:00:00 9,8 2,1 29 16 47 25 S 1002,2 10
23.11.2017 02:00:00 9,1 1,5 28 15 40 21 SSE 1002,5 10
23.11.2017 01:00:00 9,7 1,2 22 12 - - S 1003,6 10
23.11.2017 00:00:00 9,8 1,4 26 14 47 25 S 1004,1 10
22.11.2017 23:00:00 10,5 1,3 26 14 43 23 S 1004,1 10
22.11.2017 22:00:00 11,3 0,6 28 15 - - S 1004,2 10
22.11.2017 21:00:00 11,1 0,6 26 14 43 23 S 1004,3 10
22.11.2017 20:00:00 10,4 0,8 28 15 40 21 S 1004,7 10
22.11.2017 19:00:00 9,8 1,8 29 16 - - S 1005,3 10
22.11.2017 18:00:00 9,1 3,4 26 14 36 19 S 1006,0 10
22.11.2017 17:00:00 9,3 3,4 21 11 29 16 S 1006,7 10
22.11.2017 16:00:00 10,0 3,6 22 12 - - S 1007,1 10
22.11.2017 15:00:00 10,6 3,3 21 11 32 18 S 1007,7 10
22.11.2017 14:00:00 11,1 3,9 22 12 32 18 S 1008,2 10
22.11.2017 13:00:00 10,3 4,3 26 14 - - S 1009,0 10
22.11.2017 12:00:00 9,0 4,9 21 11 36 19 S 1009,7 10
22.11.2017 11:00:00 8,1 5,0 24 13 36 19 S 1010,3 10
22.11.2017 10:00:00 7,4 5,0 26 14 - - SSW 1010,6 10
22.11.2017 09:00:00 7,5 5,3 21 11 36 19 SSW 1010,3 10
22.11.2017 08:00:00 7,8 5,7 18 10 32 18 SSW 1010,3 8
22.11.2017 07:00:00 8,0 6,0 15 8 - - SSW 1010,3 8
22.11.2017 06:00:00 8,0 5,9 18 10 32 18 S 1010,7 8
22.11.2017 05:00:00 8,1 6,0 16 9 32 18 SSW 1011,2 10
22.11.2017 04:00:00 8,0 6,0 22 12 - - SSW 1011,2 10
22.11.2017 03:00:00 8,0 5,9 21 11 32 18 SSW 1011,7 10
22.11.2017 02:00:00 7,9 5,8 24 13 29 16 SSW 1012,3 10
22.11.2017 01:00:00 7,8 5,8 24 13 - - SSW 1012,7 10
22.11.2017 00:00:00 7,6 5,7 22 12 36 19 SSW 1012,7 10
21.11.2017 23:00:00 7,4 5,6 24 13 36 19 SSW 1012,8 10
21.11.2017 22:00:00 7,5 5,5 22 12 - - S 1013,2 10
21.11.2017 21:00:00 7,4 5,5 21 11 32 18 SSW 1014,0 10
21.11.2017 20:00:00 7,1 5,4 18 10 29 16 SSW 1014,2 10
21.11.2017 19:00:00 7,2 5,4 18 10 - - SSW 1014,6 8
21.11.2017 18:00:00 7,1 5,5 22 12 32 18 SSW 1014,7 9
21.11.2017 17:00:00 7,0 5,5 24 13 36 19 SSW 1014,5 9
21.11.2017 16:00:00 7,4 5,7 24 13 - - SSW 1014,7 9
21.11.2017 15:00:00 7,5 5,6 26 14 43 23 SSW 1014,8 10
21.11.2017 14:00:00 7,8 5,9 26 14 43 23 SSW 1015,2 10
21.11.2017 13:00:00 7,8 6,1 26 14 - - SSW 1015,6 10
21.11.2017 12:00:00 7,8 6,5 24 13 36 19 SSW 1015,8 10
21.11.2017 11:00:00 7,9 6,8 22 12 36 19 SW 1016,2 4,0
21.11.2017 10:00:00 7,8 7,0 22 12 - - SW 1016,1 2,2
21.11.2017 09:00:00 7,9 7,2 22 12 32 18 SW 1015,7 1,5
21.11.2017 08:00:00 8,3 7,5 24 13 36 19 SW 1015,5 2,0
21.11.2017 07:00:00 8,4 7,6 26 14 - - SW 1015,2 1,8
21.11.2017 06:00:00 8,6 7,6 24 13 36 19 WSW 1015,0 1,8
21.11.2017 05:00:00 8,6 7,8 26 14 36 19 WSW 1015,1 2,7
21.11.2017 04:00:00 8,7 7,8 26 14 - - WSW 1015,2 2,8
21.11.2017 03:00:00 8,7 7,8 24 13 40 21 WSW 1015,2 4,0
21.11.2017 02:00:00 8,8 7,8 28 15 36 19 WSW 1015,2 5
21.11.2017 01:00:00 8,6 7,7 24 13 - - WSW 1015,5 3,6
21.11.2017 00:00:00 8,5 7,6 26 14 40 21 WSW 1015,6 9
20.11.2017 23:00:00 8,3 7,2 22 12 40 21 WSW 1015,3 4,6
20.11.2017 22:00:00 7,9 6,8 29 16 - - WSW 1015,7 5
20.11.2017 21:00:00 7,5 6,6 26 14 40 21 SW 1015,7 3,8
20.11.2017 20:00:00 7,5 6,5 26 14 40 21 SW 1015,7 8
20.11.2017 19:00:00 7,0 6,3 21 11 - - SW 1015,7 2,3
20.11.2017 18:00:00 6,9 6,1 22 12 36 19 SW 1016,2 2,3
20.11.2017 17:00:00 6,4 5,6 22 12 36 19 SW 1016,7 1,7
20.11.2017 16:00:00 5,5 4,8 24 13 - - SW 1016,8 6
20.11.2017 15:00:00 5,1 4,3 24 13 40 21 SW 1017,5 1,8
20.11.2017 14:00:00 4,5 3,8 24 13 40 21 SW 1018,2 1,8
20.11.2017 13:00:00 4,0 3,2 26 14 - - SSW 1019,0 3,5
20.11.2017 12:00:00 3,8 2,7 18 10 29 16 SSW 1020,2 3,5
20.11.2017 11:00:00 3,5 1,7 21 11 29 16 SW 1021,1 7
20.11.2017 10:00:00 2,2 0,7 18 10 - - S 1021,2 10
20.11.2017 09:00:00 1,7 0,2 13 7 18 10 SW 1022,3 10
20.11.2017 08:00:00 1,2 -0,1 11 6 25 14 SW 1022,7 10
20.11.2017 07:00:00 1,0 -0,4 16 9 - - SSW 1022,6 10
20.11.2017 06:00:00 0,6 -0,6 11 6 18 10 S 1023,1 10
20.11.2017 05:00:00 0,5 -0,6 8 4 14 8 SW 1023,5 10
20.11.2017 04:00:00 0,3 -0,8 11 6 - - SW 1024,0 9
20.11.2017 03:00:00 0,6 -0,6 8 4 11 6 SW 1024,2 10
20.11.2017 02:00:00 1,6 -0,6 8 4 11 6 WSW 1024,2 10
20.11.2017 01:00:00 1,8 -0,3 8 4 - - WSW 1024,7 10
20.11.2017 00:00:00 1,4 -0,2 4 2 11 6 - 1025,2 10
19.11.2017 23:00:00 1,8 0,1 9 5 11 6 W 1025,2 10
19.11.2017 22:00:00 1,7 0,2 11 6 - - W 1025,4 10
19.11.2017 21:00:00 1,9 0,4 13 7 14 8 W 1025,0 10
19.11.2017 20:00:00 2,0 0,2 13 7 14 8 W 1024,7 10
19.11.2017 19:00:00 2,7 0,3 11 6 - - W 1024,0 10
19.11.2017 18:00:00 3,0 0,0 15 8 14 8 W 1023,6 10
19.11.2017 17:00:00 3,8 0,5 11 6 22 12 W 1023,2 10
19.11.2017 16:00:00 5,2 1,1 18 10 - - W 1022,8 10
19.11.2017 15:00:00 5,5 1,4 16 9 25 14 W 1022,7 10
19.11.2017 14:00:00 6,2 1,4 18 10 25 14 W 1022,2 10
19.11.2017 13:00:00 5,8 1,4 18 10 - - W 1022,3 10
19.11.2017 12:00:00 5,1 1,4 16 9 25 14 W 1022,2 10
19.11.2017 11:00:00 4,8 1,4 21 11 25 14 W 1022,0 10
19.11.2017 10:00:00 3,0 0,2 16 9 - - W 1021,7 10
19.11.2017 09:00:00 2,6 0,7 11 6 14 8 WSW 1021,3 10
19.11.2017 08:00:00 1,9 0,4 9 5 14 8 WSW 1020,7 10
19.11.2017 07:00:00 2,3 0,4 11 6 - - W 1020,0 10
19.11.2017 06:00:00 3,3 0,7 11 6 18 10 WNW 1019,6 10
19.11.2017 05:00:00 4,5 2,8 11 6 18 10 WNW 1019,0 10
19.11.2017 04:00:00 4,5 3,0 13 7 - - W 1018,7 7
19.11.2017 03:00:00 5,0 3,7 13 7 25 14 WNW 1018,7 9
19.11.2017 02:00:00 5,4 4,3 15 8 25 14 WNW 1018,2 6
19.11.2017 01:00:00 5,8 4,6 15 8 - - W 1018,3 7
19.11.2017 00:00:00 6,0 5,2 13 7 29 16 WNW 1018,3 10
18.11.2017 23:00:00 6,1 5,3 16 9 29 16 W 1018,5 7
18.11.2017 22:00:00 6,0 5,1 22 12 - - WSW 1018,7 6
18.11.2017 21:00:00 5,5 4,6 21 11 32 18 SW 1019,3 6
18.11.2017 20:00:00 4,9 4,0 18 10 29 16 SW 1019,8 4,4
18.11.2017 19:00:00 4,6 3,7 18 10 - - SW 1020,6 3,7
18.11.2017 18:00:00 4,5 3,1 15 8 22 12 SW 1021,2 3,5
18.11.2017 17:00:00 4,8 1,9 11 6 22 12 SW 1021,3 10
18.11.2017 16:00:00 5,4 1,5 15 8 - - SW 1021,7 10
18.11.2017 15:00:00 5,5 1,2 16 9 32 18 WSW 1022,2 10

tt = Température de l'air
td = dewpoint
ff = Vitesse du vent
fx = gusts
dd = Direction du vent
ppp = reduced air pressure
vv = visibility

stations d'obs. à proximité